• In Belgien
  • Länderverzeichnis
  • Für 7 Tage
  • Wassertemperatur
  • Satellitenkarten
  • Wetterkarte
  • Widgets
  • user-avatar
    Anmelden

    Stündliche Wetter Amanzimtoti

    Heute, 23 Februar, Freitag

    Zeit Temperatur Niederschläge Wind Luftdruck Luftfeuchtigkeit
    00:00 +22°C° 0 mm 5 m/S 754 mmHg 88%
    01:00 +22°C° 0 mm 6 m/S 754 mmHg 86%
    02:00 +22°C° 0 mm 6 m/S 753 mmHg 84%
    03:00 +22°C° 0 mm 6 m/S 753 mmHg 83%
    04:00 +21°C° 0 mm 6 m/S 752 mmHg 81%
    05:00 +21°C° 0 mm 6 m/S 752 mmHg 80%
    06:00 +23°C° 0 mm 6 m/S 752 mmHg 75%
    07:00 +26°C° 0 mm 6 m/S 752 mmHg 70%
    08:00 +28°C° 0 mm 6 m/S 751 mmHg 65%
    09:00 +30°C° 0 mm 6 m/S 751 mmHg 57%
    10:00 +34°C° 0 mm 6 m/S 751 mmHg 50%
    11:00 +36°C° 0 mm 7 m/S 750 mmHg 43%
    12:00 +38°C° 0 mm 7 m/S 750 mmHg 42%
    13:00 +38°C° 0 mm 8 m/S 749 mmHg 42%
    14:00 +39°C° 0 mm 8 m/S 748 mmHg 42%
    15:00 +38°C° 0 mm 8 m/S 748 mmHg 46%
    16:00 +37°C° 0 mm 8 m/S 748 mmHg 51%
    17:00 +35°C° 0 mm 8 m/S 748 mmHg 55%
    18:00 +33°C° 0 mm 8 m/S 748 mmHg 64%
    19:00 +29°C° 0 mm 8 m/S 748 mmHg 72%
    20:00 +27°C° 0 mm 8 m/S 748 mmHg 80%
    21:00 +27°C° 0 mm 7 m/S 748 mmHg 80%
    22:00 +26°C° 0 mm 7 m/S 748 mmHg 80%
    23:00 +26°C° 0 mm 7 m/S 748 mmHg 80%

    Morgen, 24 Februar, Samstag

    Zeit Temperatur Niederschläge Wind Luftdruck Luftfeuchtigkeit
    00:00 +26°C° 0 mm 6 m/S 748 mmHg 79%
    01:00 +26°C° 0 mm 6 m/S 748 mmHg 78%
    02:00 +25°C° 0 mm 5 m/S 748 mmHg 78%
    03:00 +25°C° 0 mm 5 m/S 748 mmHg 80%
    04:00 +25°C° 0 mm 5 m/S 749 mmHg 83%
    05:00 +25°C° 0 mm 5 m/S 749 mmHg 85%
    06:00 +26°C° 0 mm 5 m/S 749 mmHg 84%
    07:00 +27°C° 0 mm 6 m/S 750 mmHg 82%
    08:00 +27°C° 0 mm 6 m/S 750 mmHg 81%
    09:00 +29°C° 0 mm 6 m/S 750 mmHg 76%
    10:00 +30°C° 0 mm 6 m/S 750 mmHg 71%
    11:00 +32°C° 0 mm 5 m/S 750 mmHg 66%
    12:00 +30°C° 0 mm 6 m/S 750 mmHg 69%
    13:00 +30°C° 0 mm 6 m/S 749 mmHg 72%
    14:00 +29°C° 0 mm 6 m/S 749 mmHg 75%
    15:00 +28°C° 0,1 mm 6 m/S 749 mmHg 80%
    16:00 +27°C° 0,1 mm 6 m/S 750 mmHg 86%
    17:00 +26°C° 0,1 mm 6 m/S 750 mmHg 91%
    18:00 +25°C° 0,3 mm 5 m/S 750 mmHg 93%
    19:00 +25°C° 0,3 mm 5 m/S 751 mmHg 95%
    20:00 +23°C° 0,3 mm 5 m/S 751 mmHg 97%
    21:00 +23°C° 0,7 mm 5 m/S 752 mmHg 97%
    22:00 +23°C° 0,7 mm 5 m/S 753 mmHg 97%
    23:00 +23°C° 0,7 mm 5 m/S 753 mmHg 97%

    übermorgen, 25 Februar, Sonntag

    Zeit Temperatur Niederschläge Wind Luftdruck Luftfeuchtigkeit
    00:00 +23°C° 3,1 mm 7 m/S 753 mmHg 97%
    01:00 +22°C° 3,1 mm 8 m/S 754 mmHg 96%
    02:00 +21°C° 3,1 mm 9 m/S 754 mmHg 96%
    03:00 +21°C° 2,8 mm 9 m/S 754 mmHg 95%
    04:00 +19°C° 2,8 mm 9 m/S 755 mmHg 95%
    05:00 +19°C° 2,8 mm 9 m/S 755 mmHg 94%
    06:00 +18°C° 0,9 mm 9 m/S 756 mmHg 93%
    07:00 +18°C° 0,9 mm 8 m/S 757 mmHg 92%
    08:00 +18°C° 0,9 mm 8 m/S 758 mmHg 91%
    09:00 +18°C° 0,7 mm 8 m/S 758 mmHg 91%
    10:00 +18°C° 0,7 mm 8 m/S 759 mmHg 91%
    11:00 +18°C° 0,7 mm 8 m/S 759 mmHg 90%
    12:00 +18°C° 0,4 mm 8 m/S 759 mmHg 89%
    13:00 +18°C° 0,4 mm 7 m/S 759 mmHg 87%
    14:00 +20°C° 0,4 mm 7 m/S 759 mmHg 86%
    15:00 +20°C° 0,2 mm 7 m/S 759 mmHg 86%
    16:00 +20°C° 0,2 mm 6 m/S 759 mmHg 86%
    17:00 +20°C° 0,2 mm 6 m/S 759 mmHg 86%
    18:00 +20°C° 0,2 mm 5 m/S 760 mmHg 88%
    19:00 +19°C° 0,2 mm 5 m/S 760 mmHg 89%
    20:00 +19°C° 0,2 mm 4 m/S 761 mmHg 91%
    21:00 +19°C° 0,3 mm 4 m/S 761 mmHg 92%
    22:00 +19°C° 0,3 mm 3 m/S 761 mmHg 92%
    23:00 +19°C° 0,3 mm 3 m/S 761 mmHg 93%

    26 Februar, Montag

    Zeit Temperatur Niederschläge Wind Luftdruck Luftfeuchtigkeit
    00:00 +19°C° 0,2 mm 2 m/S 761 mmHg 93%
    01:00 +19°C° 0,2 mm 2 m/S 760 mmHg 93%
    02:00 +19°C° 0,2 mm 2 m/S 760 mmHg 93%
    03:00 +19°C° 0,1 mm 2 m/S 760 mmHg 93%
    04:00 +19°C° 0,1 mm 1 m/S 760 mmHg 93%
    05:00 +19°C° 0,1 mm 1 m/S 760 mmHg 94%
    06:00 +20°C° 0,1 mm 1 m/S 760 mmHg 91%
    07:00 +21°C° 0,1 mm 1 m/S 760 mmHg 89%
    08:00 +22°C° 0,1 mm 1 m/S 761 mmHg 87%
    09:00 +23°C° 0,1 mm 2 m/S 761 mmHg 81%
    10:00 +24°C° 0,1 mm 3 m/S 760 mmHg 75%
    11:00 +25°C° 0,1 mm 3 m/S 760 mmHg 70%
    12:00 +25°C° 0 mm 4 m/S 760 mmHg 70%
    13:00 +25°C° 0 mm 4 m/S 759 mmHg 70%
    14:00 +25°C° 0 mm 5 m/S 759 mmHg 71%
    15:00 +25°C° 0 mm 5 m/S 759 mmHg 74%
    16:00 +23°C° 0 mm 5 m/S 758 mmHg 77%
    17:00 +22°C° 0 mm 5 m/S 758 mmHg 80%
    18:00 +22°C° 0 mm 5 m/S 759 mmHg 83%
    19:00 +21°C° 0 mm 5 m/S 759 mmHg 85%
    20:00 +20°C° 0 mm 5 m/S 760 mmHg 88%
    21:00 +20°C° 0 mm 5 m/S 759 mmHg 89%
    22:00 +20°C° 0 mm 5 m/S 759 mmHg 91%
    23:00 +19°C° 0 mm 5 m/S 759 mmHg 92%

    27 Februar, Dienstag

    Zeit Temperatur Niederschläge Wind Luftdruck Luftfeuchtigkeit
    00:00 +19°C° 0 mm 5 m/S 759 mmHg 92%
    01:00 +19°C° 0 mm 5 m/S 758 mmHg 92%
    02:00 +19°C° 0 mm 5 m/S 757 mmHg 93%
    03:00 +19°C° 0 mm 5 m/S 757 mmHg 92%
    04:00 +19°C° 0 mm 5 m/S 757 mmHg 91%
    05:00 +19°C° 0 mm 5 m/S 757 mmHg 91%
    06:00 +20°C° 0 mm 5 m/S 757 mmHg 86%
    07:00 +21°C° 0 mm 6 m/S 757 mmHg 81%
    08:00 +23°C° 0 mm 6 m/S 757 mmHg 76%
    09:00 +26°C° 0 mm 6 m/S 757 mmHg 69%
    10:00 +28°C° 0 mm 6 m/S 756 mmHg 62%
    11:00 +32°C° 0 mm 7 m/S 756 mmHg 56%
    12:00 +32°C° 0 mm 7 m/S 755 mmHg 56%
    13:00 +33°C° 0 mm 7 m/S 754 mmHg 56%
    14:00 +33°C° 0 mm 7 m/S 754 mmHg 56%
    15:00 +32°C° 0 mm 7 m/S 754 mmHg 61%
    16:00 +30°C° 0 mm 7 m/S 754 mmHg 66%
    17:00 +29°C° 0 mm 7 m/S 754 mmHg 71%
    18:00 +27°C° 0 mm 7 m/S 754 mmHg 78%
    19:00 +26°C° 0 mm 6 m/S 754 mmHg 85%
    20:00 +23°C° 0 mm 6 m/S 755 mmHg 91%
    21:00 +22°C° 0 mm 6 m/S 755 mmHg 92%
    22:00 +22°C° 0 mm 6 m/S 755 mmHg 92%
    23:00 +22°C° 0 mm 6 m/S 755 mmHg 93%

    28 Februar, Mittwoch

    Zeit Temperatur Niederschläge Wind Luftdruck Luftfeuchtigkeit
    00:00 +22°C° 0 mm 6 m/S 755 mmHg 92%
    01:00 +22°C° 0 mm 6 m/S 754 mmHg 91%
    02:00 +22°C° 0 mm 6 m/S 754 mmHg 91%
    03:00 +22°C° 0 mm 5 m/S 754 mmHg 90%
    04:00 +22°C° 0 mm 5 m/S 754 mmHg 90%
    05:00 +22°C° 0 mm 5 m/S 754 mmHg 90%
    06:00 +23°C° 0 mm 5 m/S 754 mmHg 84%
    07:00 +26°C° 0 mm 5 m/S 755 mmHg 77%
    08:00 +28°C° 0 mm 5 m/S 755 mmHg 71%
    09:00 +30°C° 0 mm 5 m/S 755 mmHg 65%
    10:00 +33°C° 0 mm 5 m/S 754 mmHg 60%
    11:00 +35°C° 0 mm 5 m/S 754 mmHg 54%
    12:00 +35°C° 0 mm 5 m/S 754 mmHg 55%
    13:00 +35°C° 0 mm 5 m/S 754 mmHg 57%
    14:00 +35°C° 0 mm 6 m/S 753 mmHg 58%
    15:00 +34°C° 0 mm 6 m/S 754 mmHg 64%
    16:00 +32°C° 0 mm 6 m/S 754 mmHg 70%
    17:00 +30°C° 0 mm 6 m/S 754 mmHg 76%
    18:00 +29°C° 0 mm 5 m/S 754 mmHg 83%
    19:00 +27°C° 0 mm 5 m/S 755 mmHg 89%
    20:00 +26°C° 0 mm 4 m/S 756 mmHg 96%
    21:00 +26°C° 0 mm 4 m/S 756 mmHg 96%
    22:00 +25°C° 0 mm 4 m/S 756 mmHg 96%
    23:00 +25°C° 0 mm 3 m/S 756 mmHg 96%
    Mehr zeigen